| time (UTC) | temp C | wind direction | speed KPH | gust KPH | rain 1hr cm | rain 24hr cm | rain mn cm | humidity % | barometer mb |
| 20260506203613 | 11 | 318 | 6.4 | 16.1 | 0.00 | 0.03 | 0.03 | 73 | 1013.3 |
| 20260506203115 | 11 | 358 | 4.8 | 11.3 | 0.00 | 0.03 | 0.03 | 72 | 1013.2 |
| 20260506202615 | 11 | 359 | 6.4 | 12.9 | 0.00 | 0.03 | 0.03 | 71 | 1013.1 |
| 20260506202116 | 11 | 354 | 4.8 | 12.9 | 0.00 | 0.03 | 0.03 | 72 | 1013.1 |
| 20260506201617 | 11 | 335 | 4.8 | 11.3 | 0.00 | 0.03 | 0.03 | 72 | 1013.0 |
| 20260506201113 | 11 | 318 | 4.8 | 11.3 | 0.00 | 0.03 | 0.03 | 72 | 1013.0 |
| 20260506200613 | 11 | 350 | 3.2 | 6.4 | 0.00 | 0.03 | 0.03 | 74 | 1013.0 |
| 20260506200220 | 11 | 19 | 1.6 | 4.8 | 0.00 | 0.03 | 0.03 | 74 | 1013.1 |
| 20260506194606 | 11 | 23 | 6.4 | 14.5 | 0.00 | 0.03 | 0.03 | 75 | 1013.0 |
| 20260506194106 | 11 | 31 | 4.8 | 9.7 | 0.00 | 0.03 | 0.03 | 75 | 1013.0 |
| 20260506193606 | 11 | 27 | 3.2 | 6.4 | 0.00 | 0.03 | 0.03 | 75 | 1013.1 |
| 20260506193106 | 11 | 27 | 1.6 | 6.4 | 0.00 | 0.03 | 0.03 | 75 | 1013.0 |
| 20260506192605 | 11 | 62 | 1.6 | 6.4 | 0.00 | 0.03 | 0.03 | 75 | 1012.9 |
| 20260506192105 | 11 | 346 | 1.6 | 6.4 | 0.00 | 0.03 | 0.03 | 75 | 1012.8 |
| 20260506191633 | 11 | 64 | 3.2 | 4.8 | 0.00 | 0.03 | 0.03 | 75 | 1012.7 |
| 20260506190602 | 11 | 60 | 3.2 | 4.8 | 0.00 | 0.03 | 0.03 | 75 | 1012.6 |
| 20260506185603 | 11 | 79 | 1.6 | 3.2 | 0.00 | 0.03 | 0.03 | 74 | 1012.5 |
| 20260506185103 | 11 | 79 | 1.6 | 3.2 | 0.00 | 0.03 | 0.03 | 73 | 1012.4 |
| 20260506184559 | 11 | 79 | 1.6 | 4.8 | 0.00 | 0.03 | 0.03 | 72 | 1012.2 |
| 20260506184102 | 11 | 78 | 3.2 | 4.8 | 0.00 | 0.03 | 0.03 | 72 | 1012.2 |
| 20260506183600 | 11 | 79 | 3.2 | 4.8 | 0.00 | 0.03 | 0.03 | 73 | 1012.1 |
| 20260506183102 | 11 | 79 | 3.2 | 4.8 | 0.00 | 0.03 | 0.03 | 73 | 1012.1 |
| 20260506182601 | 12 | 68 | 1.6 | 4.8 | 0.00 | 0.03 | 0.03 | 73 | 1012.0 |
| 20260506182059 | 11 | 59 | 1.6 | 3.2 | 0.00 | 0.03 | 0.03 | 72 | 1012.0 |
| 20260506181600 | 12 | 59 | 3.2 | 4.8 | 0.00 | 0.03 | 0.03 | 72 | 1011.9 |
| 20260506181103 | 12 | 59 | 3.2 | 6.4 | 0.00 | 0.03 | 0.03 | 72 | 1011.8 |
| 20260506180557 | 12 | 77 | 3.2 | 6.4 | 0.00 | 0.03 | 0.03 | 72 | 1011.8 |
| 20260506180059 | 12 | 77 | 3.2 | 4.8 | 0.00 | 0.03 | 0.03 | 72 | 1011.8 |
| 20260506175635 | 11 | 58 | 3.2 | 4.8 | 0.00 | 0.03 | 0.03 | 72 | 1011.7 |
| 20260506174553 | 12 | 58 | 1.6 | 3.2 | 0.00 | 0.03 | 0.03 | 73 | 1011.5 |
| 20260506174052 | 12 | 58 | 1.6 | 6.4 | 0.00 | 0.03 | 0.03 | 74 | 1011.5 |
| 20260506173554 | 12 | 58 | 3.2 | 6.4 | 0.00 | 0.03 | 0.03 | 73 | 1011.4 |
| 20260506173052 | 12 | 65 | 1.6 | 4.8 | 0.00 | 0.03 | 0.03 | 74 | 1011.4 |
| 20260506172550 | 12 | 56 | 1.6 | 4.8 | 0.00 | 0.03 | 0.03 | 73 | 1011.3 |
| 20260506172051 | 12 | 52 | 3.2 | 4.8 | 0.00 | 0.03 | 0.03 | 73 | 1011.3 |
| 20260506171549 | 12 | 69 | 3.2 | 9.7 | 0.00 | 0.03 | 0.03 | 73 | 1011.2 |
| 20260506171117 | 12 | 70 | 3.2 | 9.7 | 0.00 | 0.03 | 0.03 | 73 | 1011.2 |
| 20260506170046 | 12 | 34 | 6.4 | 11.3 | 0.00 | 0.03 | 0.03 | 72 | 1011.1 |
| 20260506165552 | 12 | 76 | 6.4 | 12.9 | 0.00 | 0.03 | 0.03 | 71 | 1011.2 |
| 20260506165054 | 12 | 48 | 8.0 | 12.9 | 0.00 | 0.03 | 0.03 | 70 | 1011.1 |
| 20260506164622 | 12 | 62 | 9.7 | 16.1 | 0.00 | 0.03 | 0.03 | 70 | 1011.1 |
| 20260506163548 | 12 | 57 | 11.3 | 20.9 | 0.00 | 0.03 | 0.03 | 69 | 1011.2 |
| 20260506163121 | 12 | 62 | 12.9 | 20.9 | 0.00 | 0.03 | 0.03 | 67 | 1011.1 |
| 20260506162045 | 12 | 67 | 9.7 | 20.9 | 0.00 | 0.03 | 0.03 | 66 | 1011.1 |
| 20260506161547 | 12 | 347 | 8.0 | 17.7 | 0.00 | 0.03 | 0.03 | 69 | 1011.1 |
| 20260506161047 | 12 | 29 | 8.0 | 17.7 | 0.00 | 0.03 | 0.03 | 68 | 1011.1 |
| 20260506160543 | 12 | 33 | 8.0 | 17.7 | 0.00 | 0.03 | 0.03 | 68 | 1011.1 |
| 20260506160046 | 12 | 27 | 8.0 | 14.5 | 0.00 | 0.03 | 0.03 | 70 | 1011.2 |
| 20260506155542 | 12 | 71 | 8.0 | 16.1 | 0.00 | 0.03 | 0.03 | 68 | 1011.2 |
| 20260506155059 | 12 | 9 | 8.0 | 16.1 | 0.00 | 0.03 | 0.03 | 68 | 1011.1 |
| 20260506154621 | 12 | 308 | 11.3 | 16.1 | 0.00 | 0.03 | 0.03 | 68 | 1011.1 |
| 20260506153541 | 12 | 22 | 11.3 | 22.5 | 0.00 | 0.03 | 0.03 | 68 | 1011.1 |
| 20260506153048 | 12 | 71 | 9.7 | 19.3 | 0.00 | 0.03 | 0.03 | 69 | 1011.1 |
| 20260506152543 | 12 | 54 | 9.7 | 19.3 | 0.00 | 0.03 | 0.03 | 69 | 1011.0 |
| 20260506152059 | 12 | 51 | 9.7 | 19.3 | 0.00 | 0.03 | 0.03 | 69 | 1011.1 |
| 20260506151541 | 12 | 75 | 9.7 | 20.9 | 0.00 | 0.03 | 0.03 | 69 | 1011.0 |
| 20260506151042 | 12 | 93 | 11.3 | 20.9 | 0.00 | 0.03 | 0.03 | 69 | 1011.1 |
| 20260506150543 | 12 | 50 | 9.7 | 20.9 | 0.00 | 0.03 | 0.03 | 68 | 1011.1 |
| 20260506150042 | 12 | 28 | 9.7 | 20.9 | 0.00 | 0.03 | 0.03 | 69 | 1011.1 |
| 20260506145541 | 12 | 29 | 9.7 | 19.3 | 0.00 | 0.03 | 0.03 | 69 | 1011.0 |
| 20260506145047 | 12 | 47 | 9.7 | 19.3 | 0.00 | 0.03 | 0.03 | 69 | 1011.0 |
| 20260506144539 | 12 | 251 | 9.7 | 19.3 | 0.00 | 0.03 | 0.03 | 69 | 1011.0 |
| 20260506144113 | 12 | 41 | 9.7 | 19.3 | 0.00 | 0.03 | 0.03 | 69 | 1011.0 |
| 20260506143039 | 12 | 330 | 11.3 | 27.4 | 0.00 | 0.03 | 0.03 | 67 | 1011.0 |
| 20260506142541 | 12 | 4 | 11.3 | 24.1 | 0.00 | 0.03 | 0.03 | 66 | 1010.9 |
| 20260506142045 | 13 | 61 | 12.9 | 29.0 | 0.00 | 0.03 | 0.03 | 66 | 1010.9 |
| 20260506141539 | 13 | 67 | 14.5 | 29.0 | 0.00 | 0.03 | 0.03 | 65 | 1010.9 |
| 20260506141039 | 13 | 87 | 12.9 | 19.3 | 0.00 | 0.03 | 0.03 | 65 | 1010.8 |
| 20260506140537 | 13 | 46 | 12.9 | 29.0 | 0.00 | 0.03 | 0.03 | 62 | 1010.8 |
| 20260506140039 | 13 | 25 | 16.1 | 29.0 | 0.00 | 0.03 | 0.03 | 63 | 1010.8 |
| 20260506135538 | 13 | 335 | 16.1 | 29.0 | 0.00 | 0.03 | 0.03 | 60 | 1010.8 |
| 20260506135043 | 14 | 33 | 14.5 | 29.0 | 0.00 | 0.03 | 0.03 | 58 | 1010.7 |
| 20260506134617 | 14 | 28 | 14.5 | 25.7 | 0.00 | 0.03 | 0.03 | 58 | 1010.6 |
| 20260506133537 | 13 | 5 | 17.7 | 33.8 | 0.00 | 0.03 | 0.03 | 61 | 1010.6 |
| 20260506133038 | 13 | 345 | 16.1 | 32.2 | 0.00 | 0.03 | 0.03 | 62 | 1010.7 |
| 20260506132538 | 13 | 7 | 16.1 | 25.7 | 0.00 | 0.03 | 0.03 | 63 | 1010.6 |
| 20260506132042 | 13 | 354 | 12.9 | 25.7 | 0.00 | 0.03 | 0.03 | 64 | 1010.5 |
| 20260506131656 | 13 | 53 | 11.3 | 24.1 | 0.00 | 0.03 | 0.03 | 68 | 1010.5 |
| 20260506130114 | 13 | 6 | 9.7 | 22.5 | 0.00 | 0.03 | 0.03 | 71 | 1010.5 |
| 20260506125037 | 13 | 6 | 12.9 | 22.5 | 0.00 | 0.03 | 0.03 | 72 | 1010.5 |
| 20260506124538 | 13 | 357 | 12.9 | 24.1 | 0.00 | 0.03 | 0.03 | 72 | 1010.5 |
| 20260506124039 | 12 | 28 | 12.9 | 24.1 | 0.00 | 0.03 | 0.03 | 72 | 1010.5 |
| 20260506123539 | 12 | 357 | 14.5 | 24.1 | 0.00 | 0.03 | 0.03 | 72 | 1010.4 |
| 20260506123040 | 12 | 357 | 12.9 | 24.1 | 0.00 | 0.03 | 0.03 | 72 | 1010.4 |
| 20260506122536 | 12 | 27 | 12.9 | 24.1 | 0.00 | 0.03 | 0.03 | 72 | 1010.4 |
| 20260506122035 | 12 | 16 | 14.5 | 25.7 | 0.00 | 0.03 | 0.03 | 73 | 1010.3 |
| 20260506121538 | 12 | 1 | 14.5 | 27.4 | 0.00 | 0.03 | 0.03 | 74 | 1010.3 |
| 20260506121111 | 12 | 14 | 12.9 | 27.4 | 0.00 | 0.03 | 0.03 | 75 | 1010.3 |
| 20260506120037 | 12 | 314 | 14.5 | 27.4 | 0.00 | 0.03 | 0.03 | 75 | 1010.3 |
| 20260506115532 | 12 | 2 | 14.5 | 27.4 | 0.00 | 0.03 | 0.03 | 75 | 1010.3 |
| 20260506115117 | 12 | 335 | 14.5 | 25.7 | 0.00 | 0.03 | 0.03 | 77 | 1010.2 |
| 20260506114108 | 13 | 325 | 16.1 | 27.4 | 0.00 | 0.03 | 0.03 | 76 | 1010.4 |
| 20260506113035 | 13 | 10 | 14.5 | 29.0 | 0.00 | 0.03 | 0.03 | 76 | 1010.3 |
| 20260506112532 | 13 | 347 | 16.1 | 27.4 | 0.00 | 0.03 | 0.03 | 76 | 1010.3 |
| 20260506112032 | 13 | 6 | 16.1 | 29.0 | 0.00 | 0.03 | 0.03 | 75 | 1010.3 |
| 20260506111537 | 13 | 8 | 17.7 | 30.6 | 0.00 | 0.03 | 0.03 | 75 | 1010.3 |
| 20260506111033 | 13 | 3 | 16.1 | 30.6 | 0.00 | 0.03 | 0.03 | 75 | 1010.2 |
| 20260506110545 | 13 | 352 | 12.9 | 24.1 | 0.00 | 0.03 | 0.03 | 73 | 1010.3 |
| 20260506110034 | 13 | 325 | 11.3 | 24.1 | 0.00 | 0.03 | 0.03 | 74 | 1010.1 |
| 20260506105530 | 13 | 310 | 12.9 | 24.1 | 0.00 | 0.03 | 0.03 | 72 | 1010.3 |
| 20260506105033 | 13 | 339 | 16.1 | 29.0 | 0.00 | 0.03 | 0.03 | 71 | 1010.0 |
| 20260506104534 | 13 | 349 | 19.3 | 30.6 | 0.00 | 0.03 | 0.03 | 71 | 1010.1 |
| 20260506104034 | 13 | 31 | 17.7 | 30.6 | 0.00 | 0.03 | 0.03 | 70 | 1010.1 |
| 20260506103532 | 13 | 335 | 14.5 | 27.4 | 0.00 | 0.03 | 0.03 | 69 | 1010.2 |
| 20260506103031 | 13 | 31 | 14.5 | 24.1 | 0.00 | 0.03 | 0.03 | 69 | 1010.0 |
| 20260506102531 | 14 | 14 | 14.5 | 29.0 | 0.00 | 0.03 | 0.03 | 69 | 1009.9 |
| 20260506102034 | 14 | 21 | 14.5 | 29.0 | 0.00 | 0.03 | 0.03 | 69 | 1009.9 |
| 20260506101533 | 14 | 330 | 16.1 | 29.0 | 0.00 | 0.03 | 0.03 | 69 | 1010.0 |
| 20260506101038 | 14 | 358 | 14.5 | 29.0 | 0.00 | 0.03 | 0.03 | 69 | 1010.0 |
| 20260506100534 | 14 | 112 | 14.5 | 24.1 | 0.00 | 0.03 | 0.03 | 70 | 1009.9 |
| 20260506100033 | 14 | 24 | 14.5 | 30.6 | 0.00 | 0.03 | 0.03 | 71 | 1009.8 |
| 20260506095530 | 14 | 351 | 14.5 | 32.2 | 0.00 | 0.03 | 0.03 | 71 | 1009.9 |
| 20260506095032 | 13 | 349 | 16.1 | 32.2 | 0.00 | 0.03 | 0.03 | 70 | 1009.8 |
| 20260506094530 | 13 | 12 | 14.5 | 24.1 | 0.00 | 0.03 | 0.03 | 71 | 1009.8 |
| 20260506094033 | 13 | 321 | 16.1 | 27.4 | 0.00 | 0.03 | 0.03 | 71 | 1009.8 |
| 20260506093531 | 13 | 4 | 17.7 | 32.2 | 0.00 | 0.03 | 0.03 | 71 | 1010.0 |
| 20260506093031 | 13 | 21 | 16.1 | 32.2 | 0.00 | 0.03 | 0.03 | 72 | 1009.9 |
| 20260506092532 | 13 | 357 | 17.7 | 32.2 | 0.00 | 0.03 | 0.03 | 73 | 1009.8 |
| 20260506092028 | 13 | 19 | 17.7 | 32.2 | 0.00 | 0.03 | 0.03 | 73 | 1009.7 |
| 20260506091529 | 13 | 33 | 14.5 | 25.7 | 0.00 | 0.03 | 0.03 | 77 | 1009.7 |
| 20260506091030 | 13 | 339 | 14.5 | 25.7 | 0.00 | 0.03 | 0.03 | 81 | 1009.6 |
| 20260506090529 | 13 | 330 | 14.5 | 25.7 | 0.00 | 0.03 | 0.03 | 81 | 1009.5 |
| 20260506090027 | 13 | 335 | 14.5 | 25.7 | 0.00 | 0.03 | 0.03 | 82 | 1009.7 |
| 20260506085527 | 12 | 8 | 12.9 | 25.7 | 0.00 | 0.03 | 0.03 | 82 | 1009.6 |
| 20260506085026 | 12 | 1 | 12.9 | 25.7 | 0.00 | 0.03 | 0.03 | 81 | 1009.6 |
| 20260506084524 | 12 | 16 | 12.9 | 25.7 | 0.00 | 0.03 | 0.03 | 82 | 1009.6 |
| 20260506084027 | 12 | 285 | 12.9 | 25.7 | 0.00 | 0.03 | 0.03 | 83 | 1009.5 |
| 20260506083526 | 12 | 335 | 12.9 | 29.0 | 0.00 | 0.03 | 0.03 | 84 | 1009.5 |
| 20260506083028 | 12 | 26 | 12.9 | 29.0 | 0.00 | 0.03 | 0.03 | 84 | 1009.6 |
| 20260506082526 | 12 | 24 | 12.9 | 25.7 | 0.00 | 0.03 | 0.03 | 85 | 1009.4 |
| 20260506082026 | 12 | 312 | 14.5 | 27.4 | 0.00 | 0.03 | 0.03 | 85 | 1009.4 |
| 20260506081525 | 12 | 10 | 14.5 | 27.4 | 0.00 | 0.03 | 0.03 | 86 | 1009.5 |
| 20260506081058 | 12 | 330 | 16.1 | 30.6 | 0.00 | 0.03 | 0.03 | 87 | 1009.5 |
| 20260506072517 | 11 | 282 | 14.5 | 25.7 | 0.00 | 0.03 | 0.03 | 90 | 1009.4 |
| 20260506072014 | 11 | 318 | 12.9 | 25.7 | 0.00 | 0.03 | 0.03 | 90 | 1009.6 |
| 20260506071513 | 11 | 330 | 9.7 | 19.3 | 0.00 | 0.03 | 0.03 | 91 | 1009.4 |
| 20260506071052 | 11 | 19 | 12.9 | 22.5 | 0.00 | 0.03 | 0.03 | 91 | 1009.2 |
| 20260506062513 | 10 | 23 | 14.5 | 25.7 | 0.00 | 0.03 | 0.03 | 94 | 1009.0 |
| 20260506062011 | 10 | 10 | 14.5 | 25.7 | 0.00 | 0.03 | 0.03 | 94 | 1009.1 |
| 20260506061510 | 10 | 330 | 14.5 | 29.0 | 0.00 | 0.03 | 0.03 | 95 | 1009.1 |
| 20260506061008 | 10 | 325 | 12.9 | 29.0 | 0.00 | 0.03 | 0.03 | 95 | 1009.0 |
| 20260506060507 | 10 | 306 | 11.3 | 24.1 | 0.00 | 0.03 | 0.03 | 95 | 1009.0 |
| 20260506051005 | 9 | 330 | 9.7 | 16.1 | 0.00 | 0.03 | 0.03 | 96 | 1009.1 |
| 20260506050506 | 9 | 297 | 9.7 | 22.5 | 0.00 | 0.03 | 0.03 | 96 | 1009.2 |
| 20260506050109 | 9 | 335 | 11.3 | 22.5 | 0.00 | 0.03 | 0.03 | 96 | 1009.2 |
| 20260506044514 | 9 | 35 | 12.9 | 20.9 | 0.03 | 0.03 | 0.03 | 96 | 1009.2 |
| 20260506044005 | 9 | 321 | 9.7 | 20.9 | 0.03 | 0.03 | 0.03 | 96 | 1009.2 |
| 20260506043534 | 9 | 318 | 8.0 | 16.1 | 0.03 | 0.03 | 0.03 | 96 | 1009.2 |
| 20260506042534 | 9 | 307 | 8.0 | 19.3 | 0.03 | 0.03 | 0.03 | 96 | 1009.2 |
| 20260506041504 | 9 | 330 | 8.0 | 14.5 | 0.03 | 0.03 | 0.03 | 96 | 1009.2 |
| 20260506041004 | 9 | 330 | 8.0 | 17.7 | 0.03 | 0.03 | 0.03 | 95 | 1009.2 |
| 20260506040503 | 8 | 321 | 9.7 | 17.7 | 0.03 | 0.03 | 0.03 | 95 | 1009.3 |
| 20260506040012 | 8 | 344 | 9.7 | 19.3 | 0.03 | 0.03 | 0.03 | 95 | 1009.3 |
| 20260506035505 | 8 | 339 | 8.0 | 19.3 | 0.03 | 0.03 | 0.03 | 95 | 1009.3 |
| 20260506035005 | 8 | 16 | 9.7 | 17.7 | 0.00 | 0.00 | 0.00 | 95 | 1009.4 |
| 20260506034507 | 8 | 325 | 11.3 | 17.7 | 0.00 | 0.00 | 0.00 | 94 | 1009.4 |
| 20260506034006 | 9 | 349 | 12.9 | 20.9 | 0.00 | 0.00 | 0.00 | 94 | 1009.4 |
| 20260506033502 | 9 | 12 | 11.3 | 20.9 | 0.00 | 0.00 | 0.00 | 94 | 1009.4 |
| 20260506033005 | 9 | 39 | 9.7 | 20.9 | 0.00 | 0.00 | 0.00 | 94 | 1009.4 |
| 20260506032505 | 9 | 319 | 11.3 | 20.9 | 0.00 | 0.00 | 0.00 | 94 | 1009.5 |
| 20260506032005 | 9 | 353 | 11.3 | 20.9 | 0.00 | 0.00 | 0.00 | 94 | 1009.5 |
| 20260506031504 | 9 | 356 | 9.7 | 17.7 | 0.00 | 0.00 | 0.00 | 93 | 1009.4 |
| 20260506031004 | 9 | 10 | 11.3 | 17.7 | 0.00 | 0.00 | 0.00 | 93 | 1009.5 |
| 20260506030503 | 9 | 339 | 9.7 | 17.7 | 0.00 | 0.00 | 0.00 | 92 | 1009.5 |
| 20260506030004 | 9 | 330 | 9.7 | 22.5 | 0.00 | 0.00 | 0.00 | 92 | 1009.5 |
| 20260506025503 | 9 | 318 | 11.3 | 22.5 | 0.00 | 0.00 | 0.00 | 91 | 1009.6 |
| 20260506025004 | 9 | 347 | 12.9 | 24.1 | 0.00 | 0.00 | 0.00 | 91 | 1009.7 |
| 20260506024503 | 10 | 353 | 11.3 | 24.1 | 0.00 | 0.00 | 0.00 | 90 | 1009.6 |
| 20260506024004 | 9 | 6 | 8.0 | 20.9 | 0.00 | 0.00 | 0.00 | 90 | 1009.6 |
| 20260506023531 | 9 | 316 | 9.7 | 16.1 | 0.00 | 0.00 | 0.00 | 90 | 1009.5 |
| 20260506022504 | 9 | 318 | 9.7 | 17.7 | 0.00 | 0.00 | 0.00 | 90 | 1009.6 |
| 20260506022006 | 9 | 314 | 11.3 | 17.7 | 0.00 | 0.00 | 0.00 | 90 | 1009.6 |
| 20260506021505 | 9 | 325 | 9.7 | 17.7 | 0.00 | 0.00 | 0.00 | 90 | 1009.6 |
| 20260506021005 | 9 | 330 | 9.7 | 17.7 | 0.00 | 0.00 | 0.00 | 89 | 1009.5 |
| 20260506020502 | 9 | 330 | 9.7 | 19.3 | 0.00 | 0.00 | 0.00 | 89 | 1009.6 |
| 20260506020119 | 9 | 353 | 9.7 | 19.3 | 0.00 | 0.00 | 0.00 | 89 | 1009.6 |
| 20260506014505 | 9 | 330 | 8.0 | 14.5 | 0.00 | 0.00 | 0.00 | 89 | 1009.5 |
| 20260506014025 | 9 | 308 | 8.0 | 14.5 | 0.00 | 0.00 | 0.00 | 89 | 1009.6 |
| 20260506013005 | 9 | 349 | 8.0 | 16.1 | 0.00 | 0.00 | 0.00 | 89 | 1009.7 |
| 20260506012504 | 9 | 317 | 9.7 | 16.1 | 0.00 | 0.00 | 0.00 | 88 | 1009.7 |
| 20260506012003 | 9 | 325 | 9.7 | 16.1 | 0.00 | 0.00 | 0.00 | 88 | 1009.7 |
| 20260506011504 | 9 | 339 | 9.7 | 17.7 | 0.00 | 0.00 | 0.00 | 88 | 1009.7 |
| 20260506011004 | 10 | 306 | 9.7 | 17.7 | 0.00 | 0.00 | 0.00 | 88 | 1009.8 |
| 20260506010502 | 10 | 353 | 9.7 | 19.3 | 0.00 | 0.00 | 0.00 | 89 | 1009.9 |
| 20260506010106 | 10 | 339 | 9.7 | 19.3 | 0.00 | 0.00 | 0.00 | 89 | 1009.9 |
| 20260506004512 | 10 | 4 | 9.7 | 19.3 | 0.00 | 0.00 | 0.00 | 88 | 1010.0 |
| 20260506004045 | 10 | 330 | 8.0 | 19.3 | 0.00 | 0.00 | 0.00 | 88 | 1010.1 |
| 20260506003002 | 10 | 325 | 11.3 | 25.7 | 0.00 | 0.00 | 0.00 | 87 | 1010.2 |
| 20260506002504 | 10 | 339 | 12.9 | 25.7 | 0.00 | 0.00 | 0.00 | 87 | 1010.2 |
| 20260506002002 | 10 | 345 | 11.3 | 22.5 | 0.00 | 0.00 | 0.00 | 86 | 1010.2 |
| 20260506001502 | 10 | 339 | 11.3 | 24.1 | 0.00 | 0.00 | 0.00 | 86 | 1010.3 |
| 20260506001005 | 9 | 10 | 11.3 | 24.1 | 0.00 | 0.00 | 0.00 | 86 | 1010.3 |
| 20260506000504 | 9 | 1 | 9.7 | 24.1 | 0.00 | 0.00 | 0.00 | 86 | 1010.3 |
| 20260506000042 | 9 | 343 | 9.7 | 24.1 | 0.00 | 0.00 | 0.00 | 85 | 1010.3 |
| 20260505235035 | 9 | 319 | 9.7 | 17.7 | 0.00 | 0.00 | 0.00 | 85 | 1010.4 |
| 20260505233959 | 9 | 330 | 9.7 | 17.7 | 0.00 | 0.00 | 0.00 | 85 | 1010.5 |
| 20260505233458 | 9 | 343 | 8.0 | 17.7 | 0.00 | 0.00 | 0.00 | 85 | 1010.5 |
| 20260505232959 | 9 | 357 | 9.7 | 17.7 | 0.00 | 0.00 | 0.00 | 85 | 1010.5 |
| 20260505232501 | 9 | 342 | 8.0 | 17.7 | 0.00 | 0.00 | 0.00 | 84 | 1010.6 |
| 20260505232000 | 9 | 330 | 8.0 | 14.5 | 0.00 | 0.00 | 0.00 | 84 | 1010.6 |
| 20260505231459 | 9 | 306 | 8.0 | 16.1 | 0.00 | 0.00 | 0.00 | 84 | 1010.7 |
| 20260505231000 | 9 | 320 | 8.0 | 17.7 | 0.00 | 0.00 | 0.00 | 84 | 1010.7 |
| 20260505230513 | 9 | 4 | 9.7 | 17.7 | 0.00 | 0.00 | 0.00 | 84 | 1010.7 |
| 20260505230036 | 9 | 355 | 9.7 | 16.1 | 0.00 | 0.00 | 0.00 | 84 | 1010.8 |
| 20260505224957 | 9 | 320 | 6.4 | 16.1 | 0.00 | 0.00 | 0.00 | 85 | 1010.9 |
| 20260505224456 | 9 | 3 | 6.4 | 17.7 | 0.00 | 0.00 | 0.00 | 85 | 1010.8 |
| 20260505224043 | 9 | 12 | 8.0 | 17.7 | 0.00 | 0.00 | 0.00 | 85 | 1010.8 |
| 20260505222959 | 9 | 335 | 8.0 | 16.1 | 0.00 | 0.00 | 0.00 | 85 | 1010.9 |
| 20260505222459 | 9 | 19 | 8.0 | 19.3 | 0.00 | 0.00 | 0.00 | 85 | 1010.9 |
| 20260505222128 | 9 | 354 | 6.4 | 19.3 | 0.00 | 0.00 | 0.00 | 85 | 1011.0 |
| 20260505220454 | 9 | 358 | 9.7 | 19.3 | 0.00 | 0.00 | 0.00 | 85 | 1011.0 |
| 20260505215955 | 9 | 342 | 8.0 | 16.1 | 0.00 | 0.00 | 0.00 | 85 | 1011.1 |
| 20260505215453 | 9 | 318 | 9.7 | 19.3 | 0.00 | 0.00 | 0.00 | 85 | 1011.0 |
| 20260505214953 | 9 | 321 | 9.7 | 19.3 | 0.00 | 0.00 | 0.00 | 85 | 1011.1 |
| 20260505214454 | 9 | 339 | 9.7 | 17.7 | 0.00 | 0.00 | 0.00 | 85 | 1011.1 |
| 20260505214004 | 9 | 330 | 8.0 | 19.3 | 0.00 | 0.00 | 0.00 | 85 | 1011.1 |
| 20260505213449 | 10 | 339 | 6.4 | 19.3 | 0.00 | 0.00 | 0.00 | 85 | 1011.1 |
| 20260505213020 | 10 | 325 | 8.0 | 16.1 | 0.00 | 0.00 | 0.00 | 84 | 1011.1 |
| 20260505211948 | 10 | 345 | 11.3 | 22.5 | 0.00 | 0.00 | 0.00 | 83 | 1011.1 |
| 20260505211449 | 10 | 335 | 11.3 | 22.5 | 0.00 | 0.00 | 0.00 | 83 | 1011.1 |
| 20260505210959 | 10 | 325 | 9.7 | 19.3 | 0.00 | 0.00 | 0.00 | 82 | 1011.1 |
| 20260505210450 | 10 | 339 | 9.7 | 20.9 | 0.00 | 0.00 | 0.00 | 83 | 1011.2 |
| 20260505205950 | 10 | 325 | 9.7 | 20.9 | 0.00 | 0.00 | 0.00 | 83 | 1011.2 |
| 20260505205450 | 10 | 330 | 9.7 | 20.9 | 0.00 | 0.00 | 0.00 | 83 | 1011.3 |
| 20260505204951 | 10 | 4 | 11.3 | 22.5 | 0.00 | 0.00 | 0.00 | 82 | 1011.2 |
| 20260505204451 | 10 | 347 | 11.3 | 22.5 | 0.00 | 0.00 | 0.00 | 82 | 1011.3 |